Regional Weather Roundup
Issued by NWS

Home | Current Version | Previous Version | Graphics & Text | Print | Product List | Glossary On
Versions: 1 2 3 4 5 6 7 8 9 10 11 12 13 14 15 16 17 18 19 20 21 22 23 24 25 26 27 28 29 30 31 32 33 34 35 36 37 38 39 40 41 42 43 44 45 46 47 48 49 50
000
ASUS43 KFSD 291802
RWRSD

WEATHER ROUNDUP FOR SOUTH DAKOTA
NATIONAL WEATHER SERVICE SIOUX FALLS SD
1200 PM CST THU JAN 29 2015

NOTE: "FAIR" INDICATES FEW OR NO CLOUDS BELOW 12,000 FEET WITH NO
SIGNIFICANT WEATHER AND/OR OBSTRUCTIONS TO VISIBILITY.


SDZ001>005-009-010-012>017-291900-
NORTHWEST AND NORTH CENTRAL SOUTH DAKOTA

CITY           SKY/WX    TMP DP  RH WIND       PRES   REMARKS
BUFFALO          N/A     36  21  54 W10       30.40S
FAITH            N/A     33  22  63 N15       30.46S WCI  23
MOBRIDGE       CLOUDY    32  20  61 N16       30.46S WCI  21
$$

SDZ012>016-024>037-041>051-057-063-072>074-291900-
SOUTHWEST AND SOUTH CENTRAL SOUTH DAKOTA

CITY           SKY/WX    TMP DP  RH WIND       PRES   REMARKS
RAPID CTY ARPT SUNNY     40  16  37 CALM      30.47S
PIERRE         CLOUDY    36  24  62 NW15      30.48S
CUSTER         SUNNY     39 -14  10 W5        30.41S
ELLSWORTH AFB  SUNNY     42  13  30 N10       30.46F
PHILIP         SUNNY     39  23  52 NW14      30.49F
PINE RIDGE     SUNNY     36  26  67 W10       30.50S
WINNER         FAIR      40  23  50 NW22      30.47R
$$

SDZ004>011-016>023-039-040-291900-
NORTHEAST SOUTH DAKOTA

CITY           SKY/WX    TMP DP  RH WIND       PRES   REMARKS
ABERDEEN       CLOUDY    27  18  69 N22       30.49R WCI  13
WATERTOWN      CLOUDY    26  20  77 N21G30    30.40R WCI  12
SISSETON         N/A     24  21  88 N20       30.43R WCI  10
$$

SDZ017-020-022-023-036>040-048>070-291900-
SOUTHEAST SOUTH DAKOTA

CITY           SKY/WX    TMP DP  RH WIND       PRES   REMARKS
SIOUX FALLS    CLOUDY    32  23  69 N18       30.41R WCI  20
HURON          CLOUDY    30  20  66 NW22G30   30.47R WCI  17
MITCHELL       CLOUDY    33  24  69 N15G25    30.48R WCI  23
YANKTON        CLOUDY    36  25  64 NW20G29   30.45S
$$

ABBREVIATIONS USED IN REMARKS
   TC - TEMPERATURE IN CELSIUS
  WCI - WIND CHILL INDEX
   HX - HEAT INDEX
  VSB - VISIBILITY




USA.gov is the U.S. government's official web portal to all federal, state and local government web resources and services.